| time (UTC) | temp C | wind direction | speed KPH | gust KPH | rain 1hr cm | rain 24hr cm | rain mn cm | humidity % | barometer mb |
| 20260507014805 | 16 | 30 | 3.2 | 9.7 | 0.00 | 0.89 | 0.89 | 79 | 1014.1 |
| 20260507014304 | 16 | 312 | 8.0 | 14.5 | 0.00 | 0.89 | 0.89 | 79 | 1014.0 |
| 20260507013305 | 16 | 316 | 4.8 | 16.1 | 0.00 | 0.89 | 0.89 | 78 | 1013.9 |
| 20260507011804 | 16 | 19 | 4.8 | 9.7 | 0.00 | 0.89 | 0.89 | 78 | 1013.4 |
| 20260507011305 | 16 | 347 | 8.0 | 9.7 | 0.00 | 0.89 | 0.89 | 78 | 1013.1 |
| 20260507010804 | 16 | 351 | 4.8 | 16.1 | 0.00 | 0.89 | 0.89 | 78 | 1013.2 |
| 20260507010304 | 16 | 354 | 6.4 | 14.5 | 0.00 | 0.89 | 0.89 | 78 | 1013.2 |
| 20260507004305 | 16 | 347 | 4.8 | 9.7 | 0.00 | 0.89 | 0.89 | 78 | 1013.3 |
| 20260507003804 | 16 | 346 | 4.8 | 16.1 | 0.00 | 0.89 | 0.89 | 78 | 1013.1 |
| 20260507003305 | 16 | 354 | 8.0 | 16.1 | 0.00 | 0.89 | 0.89 | 78 | 1012.7 |
| 20260507000805 | 16 | 343 | 8.0 | 16.1 | 0.00 | 0.89 | 0.89 | 78 | 1012.8 |
| 20260507000306 | 16 | 348 | 3.2 | 20.9 | 0.00 | 0.89 | 0.89 | 78 | 1012.7 |
| 20260506234304 | 16 | 328 | 6.4 | 16.1 | 0.00 | 0.89 | 0.89 | 77 | 1012.7 |
| 20260506233805 | 16 | 1 | 8.0 | 22.5 | 0.00 | 0.89 | 0.89 | 77 | 1013.0 |
| 20260506231805 | 16 | 338 | 8.0 | 16.1 | 0.00 | 0.89 | 0.89 | 77 | 1012.5 |
| 20260506231305 | 16 | 0 | 12.9 | 24.1 | 0.00 | 0.89 | 0.89 | 77 | 1012.6 |
| 20260506230804 | 16 | 350 | 6.4 | 16.1 | 0.00 | 0.89 | 0.89 | 78 | 1012.5 |
| 20260506230305 | 16 | 339 | 6.4 | 19.3 | 0.00 | 0.89 | 0.89 | 77 | 1012.7 |
| 20260506224304 | 16 | 338 | 8.0 | 22.5 | 0.00 | 0.89 | 0.89 | 78 | 1012.7 |
| 20260506223804 | 16 | 348 | 11.3 | 19.3 | 0.00 | 0.89 | 0.89 | 78 | 1012.6 |
| 20260506221805 | 16 | 334 | 8.0 | 16.1 | 0.00 | 0.89 | 0.89 | 78 | 1012.5 |
| 20260506221304 | 15 | 335 | 14.5 | 25.7 | 0.00 | 0.89 | 0.89 | 78 | 1012.3 |
| 20260506220804 | 15 | 318 | 11.3 | 24.1 | 0.00 | 0.89 | 0.89 | 78 | 1012.4 |
| 20260506220305 | 15 | 341 | 9.7 | 20.9 | 0.00 | 0.89 | 0.89 | 78 | 1012.3 |
| 20260506214805 | 16 | 341 | 8.0 | 16.1 | 0.00 | 0.89 | 0.89 | 77 | 1012.6 |
| 20260506214304 | 16 | 321 | 9.7 | 24.1 | 0.00 | 0.89 | 0.89 | 77 | 1012.4 |
| 20260506213804 | 16 | 352 | 9.7 | 25.7 | 0.00 | 0.89 | 0.89 | 77 | 1012.3 |
| 20260506211805 | 16 | 343 | 19.3 | 32.2 | 0.00 | 0.89 | 0.89 | 76 | 1012.2 |
| 20260506211304 | 16 | 342 | 19.3 | 25.7 | 0.00 | 0.89 | 0.89 | 76 | 1012.3 |
| 20260506210804 | 16 | 357 | 14.5 | 22.5 | 0.00 | 0.89 | 0.89 | 77 | 1012.2 |
| 20260506204805 | 16 | 327 | 19.3 | 25.7 | 0.00 | 0.89 | 0.89 | 76 | 1012.6 |
| 20260506204304 | 16 | 346 | 11.3 | 24.1 | 0.00 | 0.89 | 0.89 | 77 | 1012.6 |
| 20260506203805 | 16 | 319 | 9.7 | 24.1 | 0.00 | 0.89 | 0.89 | 77 | 1012.5 |
| 20260506203304 | 16 | 348 | 9.7 | 24.1 | 0.00 | 0.89 | 0.89 | 76 | 1012.6 |
| 20260506201805 | 17 | 336 | 16.1 | 25.7 | 0.00 | 0.89 | 0.89 | 76 | 1012.6 |
| 20260506200804 | 17 | 349 | 14.5 | 22.5 | 0.00 | 0.89 | 0.89 | 75 | 1012.4 |
| 20260506200304 | 17 | 322 | 14.5 | 25.7 | 0.00 | 0.89 | 0.89 | 74 | 1012.3 |
| 20260506194804 | 18 | 328 | 16.1 | 22.5 | 0.00 | 0.89 | 0.89 | 75 | 1012.2 |
| 20260506194305 | 18 | 350 | 12.9 | 25.7 | 0.00 | 0.89 | 0.89 | 75 | 1012.1 |
| 20260506193304 | 19 | 340 | 14.5 | 24.1 | 0.00 | 0.89 | 0.89 | 75 | 1012.0 |
| 20260506191805 | 19 | 331 | 11.3 | 24.1 | 0.00 | 0.89 | 0.89 | 75 | 1012.0 |
| 20260506191305 | 19 | 345 | 11.3 | 25.7 | 0.00 | 0.89 | 0.89 | 75 | 1012.0 |
| 20260506190804 | 19 | 334 | 12.9 | 24.1 | 0.00 | 0.89 | 0.89 | 75 | 1012.1 |
| 20260506190304 | 20 | 331 | 11.3 | 25.7 | 0.00 | 0.89 | 0.89 | 75 | 1012.0 |
| 20260506184304 | 23 | 305 | 9.7 | 20.9 | 0.00 | 0.89 | 0.89 | 72 | 1011.8 |
| 20260506183804 | 23 | 296 | 3.2 | 20.9 | 0.00 | 0.89 | 0.89 | 72 | 1011.7 |
| 20260506183305 | 24 | 343 | 3.2 | 9.7 | 0.00 | 0.89 | 0.89 | 72 | 1011.6 |
| 20260506181804 | 25 | 306 | 8.0 | 9.7 | 0.00 | 0.89 | 0.89 | 70 | 1011.6 |
| 20260506181305 | 24 | 6 | 3.2 | 4.8 | 0.00 | 0.89 | 0.89 | 71 | 1011.5 |
| 20260506180805 | 24 | 15 | 3.2 | 12.9 | 0.00 | 0.89 | 0.89 | 74 | 1011.6 |
| 20260506180304 | 23 | 319 | 9.7 | 20.9 | 0.00 | 0.89 | 0.89 | 75 | 1011.6 |
| 20260506174805 | 22 | 336 | 4.8 | 16.1 | 0.00 | 0.89 | 0.89 | 78 | 1011.3 |
| 20260506173804 | 21 | 327 | 4.8 | 12.9 | 0.00 | 0.89 | 0.89 | 83 | 1011.2 |
| 20260506173305 | 21 | 92 | 4.8 | 12.9 | 0.00 | 0.89 | 0.89 | 85 | 1011.2 |
| 20260506171805 | 19 | 43 | 4.8 | 9.7 | 0.03 | 0.89 | 0.89 | 86 | 1011.3 |
| 20260506171304 | 18 | 141 | 4.8 | 14.5 | 0.10 | 0.89 | 0.89 | 86 | 1011.5 |
| 20260506170304 | 17 | 39 | 4.8 | 19.3 | 0.89 | 0.89 | 0.89 | 86 | 1011.4 |
| 20260506164805 | 17 | 128 | 3.2 | 19.3 | 0.89 | 0.89 | 0.89 | 86 | 1011.6 |
| 20260506164304 | 17 | 103 | 9.7 | 22.5 | 0.89 | 0.89 | 0.89 | 86 | 1011.3 |
| 20260506163804 | 16 | 61 | 9.7 | 19.3 | 0.89 | 0.89 | 0.89 | 85 | 1011.5 |
| 20260506163304 | 16 | 10 | 9.7 | 20.9 | 0.89 | 0.89 | 0.89 | 85 | 1011.6 |
| 20260506161804 | 15 | 345 | 3.2 | 14.5 | 0.86 | 0.86 | 0.86 | 83 | 1012.5 |
| 20260506160805 | 16 | 4 | 11.3 | 33.8 | 0.33 | 0.33 | 0.33 | 81 | 1012.1 |
| 20260506160304 | 16 | 16 | 14.5 | 45.1 | 0.00 | 0.00 | 0.00 | 80 | 1012.5 |
| 20260506154804 | 16 | 3 | 20.9 | 48.3 | 0.00 | 0.00 | 0.00 | 79 | 1012.2 |
| 20260506153805 | 17 | 28 | 19.3 | 41.8 | 0.00 | 0.00 | 0.00 | 79 | 1011.4 |
| 20260506153305 | 17 | 357 | 22.5 | 40.2 | 0.00 | 0.00 | 0.00 | 79 | 1011.6 |
| 20260506151804 | 18 | 13 | 17.7 | 32.2 | 0.00 | 0.00 | 0.00 | 79 | 1011.6 |
| 20260506151305 | 18 | 350 | 16.1 | 27.4 | 0.00 | 0.00 | 0.00 | 80 | 1011.5 |
| 20260506150305 | 18 | 344 | 19.3 | 33.8 | 0.00 | 0.00 | 0.00 | 79 | 1011.6 |
| 20260506144804 | 21 | 352 | 17.7 | 38.6 | 0.00 | 0.00 | 0.00 | 76 | 1010.7 |
| 20260506144304 | 22 | 354 | 14.5 | 22.5 | 0.00 | 0.00 | 0.00 | 75 | 1010.4 |
| 20260506143804 | 24 | 21 | 14.5 | 27.4 | 0.00 | 0.00 | 0.00 | 78 | 1010.2 |
| 20260506143305 | 24 | 150 | 1.6 | 19.3 | 0.00 | 0.00 | 0.00 | 80 | 1010.0 |
| 20260506141804 | 23 | 142 | 9.7 | 20.9 | 0.00 | 0.00 | 0.00 | 81 | 1009.6 |
| 20260506141305 | 23 | 118 | 11.3 | 22.5 | 0.00 | 0.00 | 0.00 | 81 | 1009.5 |
| 20260506140804 | 23 | 141 | 12.9 | 22.5 | 0.00 | 0.00 | 0.00 | 82 | 1009.4 |
| 20260506140304 | 23 | 157 | 8.0 | 20.9 | 0.00 | 0.00 | 0.00 | 82 | 1009.5 |
| 20260506134805 | 23 | 139 | 8.0 | 14.5 | 0.00 | 0.00 | 0.00 | 83 | 1009.8 |
| 20260506134305 | 23 | 116 | 8.0 | 14.5 | 0.00 | 0.00 | 0.00 | 83 | 1009.5 |
| 20260506133805 | 23 | 124 | 9.7 | 16.1 | 0.00 | 0.00 | 0.00 | 83 | 1009.2 |
| 20260506133305 | 23 | 153 | 4.8 | 19.3 | 0.00 | 0.00 | 0.00 | 83 | 1009.3 |
| 20260506131805 | 23 | 142 | 9.7 | 20.9 | 0.00 | 0.00 | 0.00 | 83 | 1009.2 |
| 20260506131304 | 23 | 137 | 9.7 | 20.9 | 0.00 | 0.00 | 0.00 | 84 | 1009.3 |
| 20260506130804 | 23 | 153 | 11.3 | 19.3 | 0.00 | 0.00 | 0.00 | 84 | 1009.0 |
| 20260506130304 | 23 | 150 | 9.7 | 19.3 | 0.00 | 0.00 | 0.00 | 84 | 1008.8 |
| 20260506123805 | 22 | 145 | 11.3 | 19.3 | 0.00 | 0.00 | 0.00 | 84 | 1008.6 |
| 20260506123305 | 22 | 147 | 11.3 | 19.3 | 0.00 | 0.00 | 0.00 | 84 | 1008.6 |
| 20260506121804 | 22 | 147 | 11.3 | 16.1 | 0.00 | 0.00 | 0.00 | 84 | 1008.4 |
| 20260506121306 | 22 | 157 | 6.4 | 12.9 | 0.00 | 0.00 | 0.00 | 84 | 1008.6 |
| 20260506120805 | 22 | 161 | 8.0 | 12.9 | 0.00 | 0.00 | 0.00 | 84 | 1008.7 |
| 20260506120305 | 22 | 157 | 4.8 | 9.7 | 0.00 | 0.00 | 0.00 | 84 | 1008.7 |
| 20260506114805 | 22 | 159 | 4.8 | 8.0 | 0.00 | 0.00 | 0.00 | 84 | 1008.6 |
| 20260506114304 | 22 | 159 | 1.6 | 9.7 | 0.00 | 0.00 | 0.00 | 84 | 1008.6 |
| 20260506113305 | 22 | 172 | 1.6 | 9.7 | 0.00 | 0.00 | 0.00 | 84 | 1008.7 |
| 20260506111804 | 22 | 172 | 0.0 | 0.0 | 0.00 | 0.00 | 0.00 | 83 | 1008.8 |
| 20260506111305 | 22 | 172 | 0.0 | 0.0 | 0.00 | 0.00 | 0.00 | 84 | 1008.8 |
| 20260506110805 | 22 | 172 | 0.0 | 0.0 | 0.00 | 0.00 | 0.00 | 84 | 1008.8 |
| 20260506110305 | 22 | 172 | 0.0 | 0.0 | 0.00 | 0.00 | 0.00 | 83 | 1008.8 |
| 20260506104804 | 22 | 172 | 0.0 | 0.0 | 0.00 | 0.00 | 0.00 | 83 | 1008.7 |
| 20260506104305 | 22 | 172 | 0.0 | 0.0 | 0.00 | 0.00 | 0.00 | 83 | 1008.7 |
| 20260506103304 | 22 | 172 | 0.0 | 4.8 | 0.00 | 0.00 | 0.00 | 83 | 1008.6 |
| 20260506101805 | 22 | 172 | 3.2 | 12.9 | 0.00 | 0.00 | 0.00 | 83 | 1008.4 |
| 20260506101304 | 23 | 186 | 3.2 | 4.8 | 0.00 | 0.00 | 0.00 | 83 | 1008.4 |
| 20260506100804 | 23 | 186 | 3.2 | 9.7 | 0.00 | 0.00 | 0.00 | 83 | 1008.3 |
| 20260506100304 | 23 | 185 | 8.0 | 16.1 | 0.00 | 0.00 | 0.00 | 83 | 1008.3 |
| 20260506094805 | 23 | 153 | 1.6 | 8.0 | 0.00 | 0.00 | 0.00 | 82 | 1008.2 |
| 20260506094304 | 23 | 163 | 8.0 | 12.9 | 0.00 | 0.00 | 0.00 | 82 | 1008.0 |
| 20260506093804 | 23 | 151 | 8.0 | 19.3 | 0.00 | 0.00 | 0.00 | 82 | 1007.9 |
| 20260506091804 | 23 | 163 | 8.0 | 16.1 | 0.00 | 0.00 | 0.00 | 81 | 1007.7 |
| 20260506091305 | 23 | 158 | 4.8 | 9.7 | 0.00 | 0.00 | 0.00 | 81 | 1007.7 |
| 20260506090805 | 23 | 158 | 4.8 | 12.9 | 0.00 | 0.00 | 0.00 | 81 | 1007.6 |
| 20260506090304 | 23 | 157 | 8.0 | 19.3 | 0.00 | 0.00 | 0.00 | 81 | 1007.5 |
| 20260506084804 | 23 | 166 | 9.7 | 19.3 | 0.00 | 0.00 | 0.00 | 81 | 1007.3 |
| 20260506084305 | 23 | 164 | 6.4 | 19.3 | 0.00 | 0.00 | 0.00 | 81 | 1007.5 |
| 20260506083804 | 23 | 179 | 4.8 | 14.5 | 0.00 | 0.00 | 0.00 | 81 | 1007.5 |
| 20260506081804 | 23 | 160 | 8.0 | 16.1 | 0.00 | 0.00 | 0.00 | 80 | 1007.6 |
| 20260506081305 | 23 | 171 | 11.3 | 22.5 | 0.00 | 0.00 | 0.00 | 80 | 1007.6 |
| 20260506080805 | 23 | 180 | 8.0 | 20.9 | 0.00 | 0.00 | 0.00 | 80 | 1007.5 |
| 20260506080305 | 23 | 187 | 8.0 | 22.5 | 0.00 | 0.00 | 0.00 | 80 | 1007.6 |
| 20260506073304 | 23 | 170 | 9.7 | 27.4 | 0.00 | 0.00 | 0.00 | 80 | 1007.8 |
| 20260506071804 | 23 | 174 | 9.7 | 20.9 | 0.00 | 0.00 | 0.00 | 80 | 1007.9 |
| 20260506071304 | 23 | 157 | 14.5 | 22.5 | 0.00 | 0.00 | 0.00 | 80 | 1008.1 |
| 20260506070804 | 23 | 170 | 14.5 | 24.1 | 0.00 | 0.00 | 0.00 | 81 | 1008.1 |
| 20260506070305 | 23 | 165 | 9.7 | 29.0 | 0.00 | 0.00 | 0.00 | 81 | 1008.1 |
| 20260506061804 | 23 | 160 | 17.7 | 29.0 | 0.00 | 0.00 | 0.00 | 81 | 1007.8 |
| 20260506061304 | 23 | 177 | 14.5 | 24.1 | 0.00 | 0.00 | 0.00 | 81 | 1007.8 |
| 20260506060805 | 23 | 174 | 11.3 | 22.5 | 0.00 | 0.00 | 0.00 | 81 | 1007.9 |
| 20260506050805 | 23 | 165 | 11.3 | 27.4 | 0.00 | 0.00 | 0.00 | 81 | 1007.9 |
| 20260506050305 | 23 | 160 | 20.9 | 27.4 | 0.00 | 0.00 | 0.00 | 81 | 1007.8 |
| 20260506044804 | 23 | 166 | 19.3 | 33.8 | 0.00 | 0.00 | 0.00 | 81 | 1007.8 |
| 20260506043804 | 23 | 160 | 14.5 | 29.0 | 0.00 | 0.00 | 0.00 | 80 | 1007.8 |
| 20260506043305 | 23 | 165 | 16.1 | 25.7 | 0.00 | 0.00 | 0.00 | 80 | 1007.7 |
| 20260506041804 | 23 | 166 | 17.7 | 27.4 | 0.00 | 0.00 | 0.00 | 80 | 1007.7 |
| 20260506041304 | 23 | 157 | 16.1 | 24.1 | 0.00 | 0.00 | 0.00 | 80 | 1007.7 |
| 20260506040304 | 24 | 166 | 12.9 | 32.2 | 0.00 | 0.00 | 0.00 | 79 | 1007.7 |
| 20260506034805 | 24 | 160 | 17.7 | 27.4 | 0.00 | 0.00 | 0.00 | 79 | 1007.5 |
| 20260506034305 | 24 | 158 | 19.3 | 29.0 | 0.00 | 0.00 | 0.00 | 78 | 1007.3 |
| 20260506033804 | 24 | 157 | 16.1 | 24.1 | 0.00 | 0.00 | 0.00 | 78 | 1007.2 |
| 20260506033304 | 24 | 161 | 17.7 | 29.0 | 0.00 | 0.00 | 0.00 | 78 | 1007.1 |
| 20260506031304 | 25 | 161 | 19.3 | 27.4 | 0.00 | 0.00 | 0.00 | 77 | 1007.0 |
| 20260506030804 | 25 | 157 | 14.5 | 22.5 | 0.00 | 0.00 | 0.00 | 77 | 1007.0 |
| 20260506030304 | 25 | 156 | 16.1 | 24.1 | 0.00 | 0.00 | 0.00 | 76 | 1006.8 |
| 20260506024304 | 25 | 157 | 14.5 | 22.5 | 0.00 | 0.00 | 0.00 | 76 | 1006.6 |
| 20260506023804 | 25 | 154 | 14.5 | 24.1 | 0.00 | 0.00 | 0.00 | 75 | 1006.5 |
| 20260506023304 | 25 | 156 | 14.5 | 25.7 | 0.00 | 0.00 | 0.00 | 75 | 1006.3 |
| 20260506021804 | 25 | 158 | 14.5 | 20.9 | 0.00 | 0.00 | 0.00 | 75 | 1006.1 |
| 20260506021304 | 25 | 160 | 14.5 | 22.5 | 0.00 | 0.00 | 0.00 | 75 | 1006.1 |
| 20260506020304 | 25 | 154 | 11.3 | 20.9 | 0.00 | 0.00 | 0.00 | 74 | 1006.0 |